| time (UTC) | temp F | wind direction | speed knots | gust knots | rain 1hr in | rain 24hr in | rain mn in | humidity % | barometer mb |
| 20260504215012 | 76 | 169 | 1.7 | 4.3 | 0.00 | 0.00 | 0.00 | 45 | 1010.9 |
| 20260504214534 | 75 | 233 | 0.9 | 6.1 | 0.00 | 0.00 | 0.00 | 46 | 1010.9 |
| 20260504214012 | 75 | 319 | 2.6 | 6.1 | 0.00 | 0.00 | 0.00 | 44 | 1010.9 |
| 20260504213514 | 75 | 19 | 0.9 | 4.3 | 0.00 | 0.00 | 0.00 | 46 | 1010.8 |
| 20260504213030 | 76 | 114 | 0.9 | 3.5 | 0.00 | 0.00 | 0.00 | 47 | 1010.9 |
| 20260504212511 | 75 | 234 | 0.9 | 3.5 | 0.00 | 0.00 | 0.00 | 50 | 1010.9 |
| 20260504212013 | 75 | 193 | 1.7 | 3.5 | 0.00 | 0.00 | 0.00 | 48 | 1011.0 |
| 20260504211514 | 75 | 125 | 1.7 | 4.3 | 0.00 | 0.00 | 0.00 | 49 | 1011.1 |
| 20260504211007 | 74 | 192 | 1.7 | 4.3 | 0.00 | 0.00 | 0.00 | 51 | 1011.2 |
| 20260504210507 | 74 | 186 | 1.7 | 4.3 | 0.00 | 0.00 | 0.00 | 51 | 1011.2 |
| 20260504210007 | 74 | 109 | 0.9 | 2.6 | 0.00 | 0.00 | 0.00 | 52 | 1011.2 |
| 20260504205504 | 75 | 202 | 0.9 | 4.3 | 0.00 | 0.00 | 0.00 | 51 | 1011.2 |
| 20260504205003 | 73 | 59 | 0.9 | 6.1 | 0.00 | 0.00 | 0.00 | 53 | 1011.2 |
| 20260504204505 | 72 | 130 | 1.7 | 5.2 | 0.00 | 0.00 | 0.00 | 51 | 1011.3 |
| 20260504204003 | 71 | 212 | 1.7 | 5.2 | 0.00 | 0.00 | 0.00 | 52 | 1011.3 |
| 20260504203503 | 73 | 181 | 0.9 | 4.3 | 0.00 | 0.00 | 0.00 | 52 | 1011.3 |
| 20260504203012 | 73 | 194 | 0.0 | 4.3 | 0.00 | 0.00 | 0.00 | 53 | 1011.3 |
| 20260504202503 | 72 | 261 | 0.9 | 2.6 | 0.00 | 0.00 | 0.00 | 53 | 1011.2 |
| 20260504202007 | 72 | 207 | 0.9 | 4.3 | 0.00 | 0.00 | 0.00 | 54 | 1011.2 |
| 20260504201503 | 71 | 205 | 0.9 | 5.2 | 0.00 | 0.00 | 0.00 | 54 | 1011.1 |
| 20260504201007 | 70 | 109 | 0.9 | 6.1 | 0.00 | 0.00 | 0.00 | 56 | 1011.2 |
| 20260504200503 | 70 | 205 | 2.6 | 6.1 | 0.00 | 0.00 | 0.00 | 54 | 1011.3 |
| 20260504200008 | 70 | 194 | 1.7 | 7.0 | 0.00 | 0.00 | 0.00 | 57 | 1011.3 |
| 20260504195506 | 70 | 217 | 3.5 | 7.0 | 0.00 | 0.00 | 0.00 | 54 | 1011.4 |
| 20260504195002 | 70 | 194 | 1.7 | 6.1 | 0.00 | 0.00 | 0.00 | 54 | 1011.4 |
| 20260504194508 | 70 | 214 | 1.7 | 5.2 | 0.00 | 0.00 | 0.00 | 56 | 1011.4 |
| 20260504194004 | 70 | 254 | 1.7 | 5.2 | 0.00 | 0.00 | 0.00 | 56 | 1011.4 |
| 20260504193504 | 69 | 223 | 1.7 | 6.1 | 0.00 | 0.00 | 0.00 | 55 | 1011.4 |
| 20260504193017 | 69 | 239 | 2.6 | 7.0 | 0.00 | 0.00 | 0.00 | 54 | 1011.4 |
| 20260504192503 | 70 | 168 | 1.7 | 7.0 | 0.00 | 0.00 | 0.00 | 56 | 1011.4 |
| 20260504192012 | 70 | 216 | 1.7 | 6.1 | 0.00 | 0.00 | 0.00 | 53 | 1011.6 |
| 20260504191511 | 70 | 325 | 1.7 | 4.3 | 0.00 | 0.00 | 0.00 | 54 | 1011.6 |
| 20260504191006 | 70 | 178 | 1.7 | 5.2 | 0.00 | 0.00 | 0.00 | 56 | 1011.6 |
| 20260504190507 | 69 | 221 | 2.6 | 7.8 | 0.00 | 0.00 | 0.00 | 54 | 1011.5 |
| 20260504190003 | 69 | 278 | 0.9 | 7.8 | 0.00 | 0.00 | 0.00 | 56 | 1011.6 |
| 20260504185500 | 69 | 215 | 1.7 | 7.8 | 0.00 | 0.00 | 0.00 | 58 | 1011.6 |
| 20260504185002 | 69 | 228 | 1.7 | 4.3 | 0.00 | 0.00 | 0.00 | 57 | 1011.7 |
| 20260504184505 | 69 | 178 | 0.9 | 4.3 | 0.00 | 0.00 | 0.00 | 60 | 1011.7 |
| 20260504184004 | 68 | 244 | 1.7 | 5.2 | 0.00 | 0.00 | 0.00 | 59 | 1011.8 |
| 20260504183502 | 68 | 194 | 0.9 | 5.2 | 0.00 | 0.00 | 0.00 | 61 | 1011.7 |
| 20260504183005 | 67 | 208 | 0.9 | 6.1 | 0.00 | 0.00 | 0.00 | 59 | 1011.7 |
| 20260504182504 | 67 | 165 | 2.6 | 6.1 | 0.00 | 0.00 | 0.00 | 60 | 1011.8 |
| 20260504182008 | 67 | 140 | 1.7 | 4.3 | 0.00 | 0.00 | 0.00 | 59 | 1011.8 |
| 20260504181510 | 68 | 223 | 0.9 | 4.3 | 0.00 | 0.00 | 0.00 | 60 | 1011.8 |
| 20260504181004 | 67 | 194 | 1.7 | 5.2 | 0.00 | 0.00 | 0.00 | 61 | 1011.8 |
| 20260504180509 | 67 | 130 | 2.6 | 5.2 | 0.00 | 0.00 | 0.00 | 58 | 1011.8 |
| 20260504180014 | 66 | 187 | 0.9 | 3.5 | 0.00 | 0.00 | 0.00 | 60 | 1011.9 |
| 20260504175507 | 67 | 256 | 0.9 | 7.0 | 0.00 | 0.00 | 0.00 | 59 | 1011.9 |
| 20260504175007 | 65 | 223 | 0.9 | 7.0 | 0.00 | 0.00 | 0.00 | 63 | 1011.8 |
| 20260504174504 | 64 | 200 | 2.6 | 6.1 | 0.00 | 0.00 | 0.00 | 63 | 1011.8 |
| 20260504174002 | 64 | 219 | 0.9 | 6.1 | 0.00 | 0.00 | 0.00 | 64 | 1011.8 |
| 20260504173504 | 65 | 208 | 1.7 | 6.1 | 0.00 | 0.00 | 0.00 | 61 | 1011.8 |
| 20260504173002 | 65 | 175 | 0.9 | 5.2 | 0.00 | 0.00 | 0.00 | 63 | 1011.7 |
| 20260504172504 | 64 | 203 | 0.9 | 7.0 | 0.00 | 0.00 | 0.00 | 65 | 1011.6 |
| 20260504172006 | 63 | 169 | 2.6 | 7.0 | 0.00 | 0.00 | 0.00 | 66 | 1011.6 |
| 20260504171528 | 63 | 150 | 1.7 | 7.0 | 0.00 | 0.00 | 0.00 | 64 | 1011.7 |
| 20260504171007 | 63 | 182 | 2.6 | 7.8 | 0.00 | 0.00 | 0.00 | 64 | 1011.6 |
| 20260504170506 | 62 | 144 | 2.6 | 7.8 | 0.00 | 0.00 | 0.00 | 64 | 1011.6 |
| 20260504151004 | 59 | 163 | 0.9 | 4.3 | 0.00 | 0.00 | 0.00 | 70 | 1010.9 |
| 20260504150504 | 59 | 178 | 1.7 | 3.5 | 0.00 | 0.00 | 0.00 | 71 | 1010.9 |
| 20260504141011 | 55 | 27 | 0.0 | 0.0 | 0.00 | 0.00 | 0.00 | 80 | 1010.5 |
| 20260504140508 | 54 | 27 | 0.0 | 0.0 | 0.00 | 0.00 | 0.00 | 81 | 1010.6 |
| 20260504130511 | 52 | 62 | 0.0 | 0.0 | 0.00 | 0.00 | 0.00 | 82 | 1009.9 |
| 20260504110509 | 53 | 84 | 0.0 | 0.0 | 0.00 | 0.00 | 0.00 | 78 | 1009.7 |
| 20260504100504 | 55 | 84 | 0.0 | 0.0 | 0.00 | 0.00 | 0.00 | 73 | 1009.7 |
| 20260504082004 | 58 | 84 | 0.0 | 0.0 | 0.00 | 0.00 | 0.00 | 66 | 1009.6 |
| 20260504081523 | 58 | 84 | 0.0 | 0.0 | 0.00 | 0.00 | 0.00 | 66 | 1009.6 |
| 20260504081004 | 58 | 84 | 0.0 | 0.0 | 0.00 | 0.00 | 0.00 | 65 | 1009.6 |
| 20260504080503 | 58 | 84 | 0.0 | 0.0 | 0.00 | 0.00 | 0.00 | 66 | 1009.7 |
| 20260504050507 | 68 | 43 | 0.0 | 0.0 | 0.00 | 0.00 | 0.00 | 47 | 1009.6 |
| 20260504045504 | 68 | 43 | 0.0 | 0.0 | 0.00 | 0.00 | 0.00 | 45 | 1009.7 |
| 20260504045006 | 68 | 43 | 0.0 | 0.0 | 0.00 | 0.00 | 0.00 | 45 | 1009.7 |
| 20260504044523 | 68 | 43 | 0.0 | 0.0 | 0.00 | 0.00 | 0.00 | 45 | 1009.7 |
| 20260504044009 | 69 | 43 | 0.0 | 0.0 | 0.00 | 0.00 | 0.00 | 44 | 1009.8 |
| 20260504043507 | 69 | 43 | 0.0 | 0.0 | 0.00 | 0.00 | 0.00 | 43 | 1009.6 |
| 20260504043018 | 69 | 74 | 0.0 | 0.9 | 0.00 | 0.00 | 0.00 | 43 | 1009.6 |
| 20260504042507 | 69 | 77 | 0.0 | 2.6 | 0.00 | 0.00 | 0.00 | 44 | 1009.6 |
| 20260504042007 | 69 | 14 | 0.9 | 2.6 | 0.00 | 0.00 | 0.00 | 44 | 1009.5 |
| 20260504041528 | 69 | 90 | 0.0 | 1.7 | 0.00 | 0.00 | 0.00 | 45 | 1009.5 |
| 20260504041008 | 70 | 53 | 0.0 | 1.7 | 0.00 | 0.00 | 0.00 | 44 | 1009.5 |
| 20260504040507 | 70 | 34 | 0.0 | 1.7 | 0.00 | 0.00 | 0.00 | 44 | 1009.5 |
| 20260504040025 | 70 | 61 | 0.9 | 2.6 | 0.00 | 0.00 | 0.00 | 44 | 1009.5 |
| 20260504035508 | 70 | 45 | 0.9 | 2.6 | 0.00 | 0.00 | 0.00 | 44 | 1009.4 |
| 20260504035008 | 70 | 5 | 0.9 | 2.6 | 0.00 | 0.00 | 0.00 | 46 | 1009.4 |
| 20260504034529 | 70 | 13 | 0.0 | 1.7 | 0.00 | 0.00 | 0.00 | 46 | 1009.3 |
| 20260504034004 | 70 | 16 | 0.0 | 1.7 | 0.00 | 0.00 | 0.00 | 46 | 1009.3 |
| 20260504033508 | 70 | 332 | 0.0 | 1.7 | 0.00 | 0.00 | 0.00 | 46 | 1009.2 |
| 20260504033017 | 71 | 332 | 0.0 | 2.6 | 0.00 | 0.00 | 0.00 | 44 | 1009.3 |
| 20260504032507 | 71 | 327 | 0.0 | 4.3 | 0.00 | 0.00 | 0.00 | 43 | 1009.3 |
| 20260504032012 | 72 | 5 | 1.7 | 7.0 | 0.00 | 0.00 | 0.00 | 42 | 1009.3 |
| 20260504031522 | 72 | 346 | 0.9 | 7.0 | 0.00 | 0.00 | 0.00 | 43 | 1009.3 |
| 20260504031007 | 72 | 15 | 1.7 | 6.1 | 0.00 | 0.00 | 0.00 | 42 | 1009.3 |
| 20260504030510 | 72 | 352 | 2.6 | 3.5 | 0.00 | 0.00 | 0.00 | 42 | 1009.2 |
| 20260504030037 | 73 | 34 | 0.9 | 5.2 | 0.00 | 0.00 | 0.00 | 42 | 1009.0 |
| 20260504025509 | 73 | 9 | 1.7 | 5.2 | 0.00 | 0.00 | 0.00 | 42 | 1009.0 |
| 20260504025010 | 73 | 346 | 1.7 | 6.1 | 0.00 | 0.00 | 0.00 | 41 | 1009.1 |
| 20260504024525 | 74 | 34 | 2.6 | 6.1 | 0.00 | 0.00 | 0.00 | 40 | 1009.0 |
| 20260504024006 | 74 | 342 | 1.7 | 4.3 | 0.00 | 0.00 | 0.00 | 40 | 1009.0 |
| 20260504023506 | 74 | 9 | 1.7 | 8.7 | 0.00 | 0.00 | 0.00 | 39 | 1009.0 |
| 20260504023031 | 75 | 350 | 2.6 | 9.6 | 0.00 | 0.00 | 0.00 | 39 | 1009.0 |
| 20260504022505 | 75 | 341 | 2.6 | 9.6 | 0.00 | 0.00 | 0.00 | 39 | 1009.0 |
| 20260504022007 | 75 | 352 | 1.7 | 8.7 | 0.00 | 0.00 | 0.00 | 40 | 1009.0 |
| 20260504021517 | 76 | 5 | 2.6 | 7.0 | 0.00 | 0.00 | 0.00 | 40 | 1009.0 |
| 20260504021008 | 76 | 347 | 0.9 | 7.0 | 0.00 | 0.00 | 0.00 | 40 | 1009.0 |
| 20260504020508 | 76 | 59 | 1.7 | 6.1 | 0.00 | 0.00 | 0.00 | 40 | 1009.0 |
| 20260504020022 | 76 | 5 | 0.9 | 7.8 | 0.00 | 0.00 | 0.00 | 40 | 1009.0 |
| 20260504015508 | 76 | 321 | 2.6 | 8.7 | 0.00 | 0.00 | 0.00 | 39 | 1009.1 |
| 20260504015011 | 77 | 319 | 3.5 | 8.7 | 0.00 | 0.00 | 0.00 | 39 | 1009.1 |
| 20260504014508 | 77 | 57 | 2.6 | 7.8 | 0.00 | 0.00 | 0.00 | 39 | 1009.2 |
| 20260504014003 | 77 | 307 | 1.7 | 7.0 | 0.00 | 0.00 | 0.00 | 39 | 1009.1 |
| 20260504013508 | 77 | 342 | 2.6 | 7.0 | 0.00 | 0.00 | 0.00 | 39 | 1009.1 |
| 20260504013010 | 78 | 332 | 2.6 | 7.0 | 0.00 | 0.00 | 0.00 | 38 | 1009.2 |
| 20260504012508 | 78 | 336 | 2.6 | 9.6 | 0.00 | 0.00 | 0.00 | 38 | 1009.2 |
| 20260504012001 | 78 | 352 | 2.6 | 9.6 | 0.00 | 0.00 | 0.00 | 39 | 1009.3 |
| 20260504011503 | 78 | 9 | 0.9 | 5.2 | 0.00 | 0.00 | 0.00 | 38 | 1009.4 |
| 20260504011000 | 78 | 306 | 1.7 | 5.2 | 0.00 | 0.00 | 0.00 | 39 | 1009.4 |
| 20260504010503 | 78 | 318 | 0.9 | 3.5 | 0.00 | 0.00 | 0.00 | 38 | 1009.4 |
| 20260504010003 | 78 | 342 | 0.9 | 7.0 | 0.00 | 0.00 | 0.00 | 38 | 1009.5 |
| 20260504005504 | 78 | 304 | 1.7 | 7.0 | 0.00 | 0.00 | 0.00 | 38 | 1009.5 |
| 20260504005004 | 78 | 342 | 2.6 | 6.1 | 0.00 | 0.00 | 0.00 | 38 | 1009.6 |
| 20260504004503 | 78 | 279 | 1.7 | 3.5 | 0.00 | 0.00 | 0.00 | 39 | 1009.7 |
| 20260504004006 | 79 | 333 | 1.7 | 4.3 | 0.00 | 0.00 | 0.00 | 39 | 1009.7 |
| 20260504003506 | 79 | 269 | 1.7 | 4.3 | 0.00 | 0.00 | 0.00 | 39 | 1009.8 |
| 20260504003008 | 79 | 275 | 1.7 | 7.0 | 0.00 | 0.00 | 0.00 | 38 | 1009.9 |
| 20260504002505 | 79 | 5 | 3.5 | 7.0 | 0.00 | 0.00 | 0.00 | 38 | 1009.9 |
| 20260504002004 | 79 | 254 | 1.7 | 6.1 | 0.00 | 0.00 | 0.00 | 37 | 1009.9 |
| 20260504001508 | 79 | 317 | 1.7 | 7.0 | 0.00 | 0.00 | 0.00 | 39 | 1010.0 |
| 20260504001004 | 79 | 209 | 3.5 | 7.0 | 0.00 | 0.00 | 0.00 | 37 | 1010.0 |
| 20260504000503 | 79 | 352 | 1.7 | 7.0 | 0.00 | 0.00 | 0.00 | 39 | 1010.1 |
| 20260504000004 | 79 | 287 | 0.9 | 7.0 | 0.00 | 0.00 | 0.00 | 39 | 1010.2 |
| 20260503235504 | 79 | 352 | 1.7 | 5.2 | 0.00 | 0.00 | 0.00 | 39 | 1010.2 |
| 20260503235004 | 79 | 342 | 1.7 | 6.1 | 0.00 | 0.00 | 0.00 | 40 | 1010.3 |
| 20260503234505 | 79 | 352 | 3.5 | 7.8 | 0.00 | 0.00 | 0.00 | 38 | 1010.3 |
| 20260503234003 | 79 | 298 | 1.7 | 7.8 | 0.00 | 0.00 | 0.00 | 38 | 1010.3 |
| 20260503233505 | 79 | 281 | 1.7 | 4.3 | 0.00 | 0.00 | 0.00 | 39 | 1010.4 |
| 20260503233006 | 79 | 291 | 1.7 | 7.0 | 0.00 | 0.00 | 0.00 | 38 | 1010.5 |
| 20260503232504 | 79 | 346 | 4.3 | 7.0 | 0.00 | 0.00 | 0.00 | 38 | 1010.6 |
| 20260503232004 | 79 | 319 | 2.6 | 7.8 | 0.00 | 0.00 | 0.00 | 38 | 1010.6 |
| 20260503231511 | 78 | 19 | 2.6 | 9.6 | 0.00 | 0.00 | 0.00 | 39 | 1010.6 |
| 20260503231008 | 78 | 50 | 3.5 | 9.6 | 0.00 | 0.00 | 0.00 | 39 | 1010.7 |
| 20260503230510 | 78 | 9 | 3.5 | 7.8 | 0.00 | 0.00 | 0.00 | 39 | 1010.8 |
| 20260503230012 | 78 | 284 | 2.6 | 8.7 | 0.00 | 0.00 | 0.00 | 40 | 1010.9 |
| 20260503225503 | 78 | 293 | 1.7 | 7.8 | 0.00 | 0.00 | 0.00 | 41 | 1010.9 |
| 20260503225003 | 78 | 9 | 3.5 | 7.8 | 0.00 | 0.00 | 0.00 | 39 | 1011.1 |
| 20260503224503 | 78 | 9 | 3.5 | 7.8 | 0.00 | 0.00 | 0.00 | 40 | 1011.1 |
| 20260503224001 | 79 | 348 | 4.3 | 7.8 | 0.00 | 0.00 | 0.00 | 38 | 1011.1 |
| 20260503223505 | 79 | 303 | 2.6 | 6.1 | 0.00 | 0.00 | 0.00 | 39 | 1011.2 |
| 20260503223006 | 78 | 275 | 1.7 | 6.1 | 0.00 | 0.00 | 0.00 | 39 | 1011.2 |
| 20260503222505 | 78 | 352 | 1.7 | 6.1 | 0.00 | 0.00 | 0.00 | 38 | 1011.3 |
| 20260503222004 | 78 | 333 | 1.7 | 5.2 | 0.00 | 0.00 | 0.00 | 40 | 1011.4 |
| 20260503221508 | 78 | 255 | 1.7 | 7.8 | 0.00 | 0.00 | 0.00 | 40 | 1011.5 |
| 20260503221013 | 77 | 290 | 2.6 | 7.8 | 0.00 | 0.00 | 0.00 | 39 | 1011.6 |
| 20260503220507 | 77 | 262 | 0.9 | 5.2 | 0.00 | 0.00 | 0.00 | 40 | 1011.5 |
| 20260503220036 | 77 | 252 | 2.6 | 5.2 | 0.00 | 0.00 | 0.00 | 40 | 1011.6 |
| 20260503215507 | 77 | 200 | 2.6 | 7.8 | 0.00 | 0.00 | 0.00 | 41 | 1011.6 |